| time (UTC) | temp C | wind direction | speed KPH | gust KPH | rain 1hr cm | rain 24hr cm | rain mn cm | humidity % | barometer mb |
| 20260507090045 | 1 | 350 | 0.0 | 0.0 | 0.00 | 0.89 | 0.00 | 63 | 1011.3 |
| 20260507084540 | 1 | 350 | 0.0 | 0.0 | 0.00 | 0.89 | 0.00 | 66 | 1011.2 |
| 20260507083038 | 1 | 350 | 0.0 | 0.0 | 0.00 | 0.89 | 0.00 | 69 | 1011.3 |
| 20260507081533 | 2 | 350 | 0.0 | 0.0 | 0.00 | 0.89 | 0.00 | 75 | 1011.2 |
| 20260507080031 | 2 | 350 | 0.0 | 0.0 | 0.00 | 0.89 | 0.00 | 74 | 1011.3 |
| 20260507074540 | 2 | 350 | 0.0 | 0.0 | 0.00 | 1.07 | 0.00 | 77 | 1011.2 |
| 20260507073028 | 2 | 350 | 0.0 | 0.0 | 0.00 | 1.07 | 0.00 | 78 | 1011.0 |
| 20260507071525 | 2 | 350 | 0.0 | 0.0 | 0.00 | 1.07 | 0.00 | 79 | 1011.0 |
| 20260507070022 | 3 | 350 | 0.0 | 0.0 | 0.00 | 1.07 | 0.00 | 79 | 1011.1 |
| 20260507064520 | 3 | 350 | 0.0 | 0.0 | 0.00 | 1.22 | 0.00 | 78 | 1011.1 |
| 20260507063017 | 4 | 350 | 0.0 | 0.0 | 0.00 | 1.22 | 0.00 | 77 | 1011.0 |
| 20260507061513 | 5 | 350 | 0.0 | 0.0 | 0.00 | 1.22 | 0.00 | 74 | 1011.1 |
| 20260507060011 | 5 | 350 | 0.0 | 0.0 | 0.00 | 1.22 | 0.00 | 72 | 1011.2 |
| 20260507054507 | 5 | 359 | 0.0 | 0.0 | 0.00 | 1.22 | 0.00 | 71 | 1011.4 |
| 20260507053006 | 5 | 27 | 0.0 | 0.0 | 0.00 | 1.22 | 0.00 | 71 | 1011.6 |
| 20260507051504 | 6 | 347 | 0.0 | 0.0 | 0.00 | 1.22 | 0.00 | 71 | 1011.6 |
| 20260507050003 | 6 | 340 | 0.0 | 1.6 | 0.00 | 1.22 | 0.00 | 71 | 1011.5 |
| 20260507044602 | 6 | 311 | 0.0 | 0.0 | 0.00 | 1.22 | 0.00 | 70 | 1011.4 |
| 20260507043101 | 6 | 3 | 0.0 | 1.6 | 0.00 | 1.22 | 0.00 | 71 | 1011.3 |
| 20260507041601 | 6 | 291 | 0.0 | 0.0 | 0.00 | 1.22 | 0.00 | 70 | 1011.4 |
| 20260507040059 | 6 | 319 | 0.0 | 0.0 | 0.00 | 1.22 | 0.00 | 69 | 1011.3 |
| 20260507034558 | 6 | 309 | 0.0 | 0.0 | 0.00 | 1.22 | 1.22 | 69 | 1011.2 |
| 20260507033048 | 6 | 302 | 0.0 | 0.0 | 0.00 | 1.22 | 1.22 | 69 | 1011.2 |
| 20260507031542 | 6 | 358 | 0.0 | 0.0 | 0.00 | 1.22 | 1.22 | 69 | 1011.0 |
| 20260507030039 | 6 | 323 | 0.0 | 0.0 | 0.00 | 1.22 | 1.22 | 70 | 1010.9 |
| 20260507024548 | 6 | 349 | 0.0 | 0.0 | 0.00 | 1.22 | 1.22 | 69 | 1010.8 |
| 20260507023029 | 6 | 311 | 0.0 | 0.0 | 0.00 | 1.22 | 1.22 | 69 | 1010.6 |
| 20260507021525 | 7 | 354 | 0.0 | 0.0 | 0.00 | 1.22 | 1.22 | 69 | 1010.5 |
| 20260507020021 | 7 | 337 | 0.0 | 0.0 | 0.00 | 1.22 | 1.22 | 69 | 1010.3 |
| 20260507014532 | 7 | 336 | 0.0 | 0.0 | 0.00 | 1.22 | 1.22 | 71 | 1010.7 |
| 20260507013012 | 7 | 333 | 0.0 | 1.6 | 0.00 | 1.22 | 1.22 | 69 | 1011.1 |
| 20260507011512 | 7 | 297 | 0.0 | 0.0 | 0.00 | 1.22 | 1.22 | 70 | 1011.0 |
| 20260507010003 | 7 | 4 | 0.0 | 1.6 | 0.00 | 1.22 | 1.22 | 69 | 1010.7 |
| 20260507004558 | 8 | 359 | 0.0 | 0.0 | 0.00 | 1.22 | 1.22 | 69 | 1010.9 |
| 20260507003055 | 8 | 342 | 0.0 | 0.0 | 0.00 | 1.22 | 1.22 | 68 | 1010.4 |
| 20260507001556 | 8 | 340 | 0.0 | 1.6 | 0.00 | 1.22 | 1.22 | 67 | 1010.4 |
| 20260507000045 | 8 | 296 | 0.0 | 1.6 | 0.00 | 1.22 | 1.22 | 68 | 1009.9 |
| 20260506234541 | 9 | 290 | 0.0 | 6.4 | 0.00 | 1.22 | 1.22 | 75 | 1009.7 |
| 20260506233038 | 9 | 299 | 0.0 | 0.0 | 0.00 | 1.22 | 1.22 | 77 | 1009.3 |
| 20260506231535 | 10 | 162 | 0.0 | 0.0 | 0.00 | 1.22 | 1.22 | 76 | 1009.0 |
| 20260506230028 | 10 | 340 | 0.0 | 0.0 | 0.00 | 1.22 | 1.22 | 76 | 1008.9 |
| 20260506224523 | 10 | 316 | 0.0 | 1.6 | 0.00 | 1.22 | 1.22 | 76 | 1008.9 |
| 20260506223019 | 10 | 319 | 0.0 | 0.0 | 0.00 | 1.22 | 1.22 | 77 | 1008.6 |
| 20260506221518 | 10 | 287 | 0.0 | 1.6 | 0.00 | 1.22 | 1.22 | 76 | 1008.6 |
| 20260506220014 | 10 | 342 | 0.0 | 1.6 | 0.00 | 1.22 | 1.22 | 76 | 1008.7 |
| 20260506214516 | 10 | 250 | 0.0 | 0.0 | 0.00 | 1.22 | 1.22 | 76 | 1008.4 |
| 20260506213005 | 10 | 320 | 0.0 | 1.6 | 0.00 | 1.22 | 1.22 | 76 | 1007.9 |
| 20260506211503 | 10 | 300 | 0.0 | 1.6 | 0.00 | 1.22 | 1.22 | 76 | 1007.9 |
| 20260506210056 | 10 | 243 | 0.0 | 4.8 | 0.00 | 1.22 | 1.22 | 74 | 1007.6 |
| 20260506204554 | 10 | 276 | 0.0 | 1.6 | 0.00 | 1.22 | 1.22 | 74 | 1007.4 |
| 20260506203047 | 10 | 289 | 0.0 | 0.0 | 0.00 | 1.22 | 1.22 | 74 | 1007.5 |
| 20260506201543 | 10 | 293 | 0.0 | 1.6 | 0.00 | 1.22 | 1.22 | 72 | 1007.7 |
| 20260506200038 | 10 | 342 | 0.0 | 1.6 | 0.00 | 1.22 | 1.22 | 71 | 1007.4 |
| 20260506194537 | 10 | 238 | 0.0 | 1.6 | 0.00 | 1.22 | 1.22 | 74 | 1007.1 |
| 20260506193033 | 11 | 294 | 0.0 | 0.0 | 0.00 | 1.22 | 1.22 | 71 | 1006.9 |
| 20260506191525 | 11 | 309 | 0.0 | 1.6 | 0.00 | 1.22 | 1.22 | 68 | 1006.7 |
| 20260506190020 | 11 | 321 | 0.0 | 0.0 | 0.00 | 1.22 | 1.22 | 61 | 1006.5 |